Tracking 18843 objects as of 20-November-2017
HD Live streaming from Space Station
objects crossing your sky now

HALCA (MUSES B)

Track HALCA (MUSES B) now!
10-day predictions
HALCA (MUSES B) is classified as:


NORAD ID: 24720
Int'l Code: 1997-005A
Perigee: 539.2 km
Apogee: 21,233.3 km
Inclination: 31.2 °
Period: 376.0 minutes
Semi major axis: 17257 km
RCS: 27.289 m2 (large)
Launch date: February 12, 1997
Source: Japan (JPN)
Launch site: KAGOSHIMA SPACE CENTER UNIVERSITY OF TOKYO (KSCUT)

Dedicated to Very-Long Baseline Interferometry (VLBI). Halca means "far away."
aabbcc
Your satellite tracking list
Your tracking list is empty




NASA's NSSDC Master Catalog

Two Line Element Set (TLE):
1 24720U 97005A   17322.47496017 -.00000073 +00000-0 -70284-4 0  9996
2 24720 031.2204 122.8624 5995751 349.5139 012.1469 03.82951939289471
Source of the keplerian elements: AFSPC